[[{"header":{"parameterUnit":"m.s-1","parameterCategory":1,"la1":30.2991,"la2":30.254,"lo1":-89.0895,"lo2":-89.0444,"dy":0.0017,"dx":0.0017,"nx":28,"ny":28,"refTime":"2025-08-29T09:00:00:Z","depth":0,"parameterNumber":2,"parameterNumberName":"U-component_of_WINDS"},"data":[0,0,0,0,0,0,0,0,0,0,0,0,0,0,0,0,0,0,0,0,0,0,0,0,0,0,0,0,0,0,0,0,0,0,0,0,0,0,0,0,0,0,0,0,0,0,0,0,0,0,0,0,0,0,0,0,0,0,-1.4377,-1.4381,0,-1.4707,-1.4711,-1.4714,-1.4906,-1.4907,-1.4908,-1.4908,-1.5248,-1.5256,-1.5264,0,0,0,0,0,0,0,0,0,0,0,0,0,-1.3912,-1.3919,-1.4377,-1.4381,-1.4385,-1.4706,-1.4711,-1.4715,-1.4906,-1.4907,-1.4908,-1.4909,-1.5245,-1.5255,-1.5265,0,0,0,0,0,0,0,0,0,0,0,0,0,-1.4165,-1.3922,-1.4376,-1.4519,-1.4535,-1.4705,-1.4711,-1.4717,-1.4906,-1.4907,-1.4908,-1.4909,-1.5242,-1.5254,-1.5266,-1.532,0,0,-1.5304,-1.531,0,0,0,0,0,0,0,0,-1.415,-1.4182,-1.4494,-1.451,-1.4528,-1.4767,-1.4671,-1.4919,-1.4905,-1.4765,-1.4908,-1.491,-1.5087,-1.5112,-1.5171,-1.5336,-1.5351,-1.5305,-1.5313,-1.5318,-1.5322,0,0,0,0,0,0,0,-1.4132,-1.4168,-1.4508,-1.4498,-1.4519,-1.4566,-1.4604,-1.4719,-1.4916,-1.4777,-1.4792,-1.4828,-1.5096,-1.5159,-1.5181,-1.5356,-1.5305,-1.5316,-1.5324,-1.5329,-1.5578,-1.5577,0,0,0,0,0,0,-1.4092,-1.4153,-1.4497,-1.4518,-1.4338,-1.4574,-1.4615,-1.4689,-1.4915,-1.495,-1.4827,-1.4836,-1.5137,-1.5166,-1.5193,-1.527,-1.5318,-1.533,-1.5337,-1.5579,-1.5578,-1.5577,0,0,0,0,0,0,-1.4081,-1.4121,-1.4484,-1.4339,-1.4389,-1.4581,-1.4661,-1.4695,-1.4758,-1.4952,-1.4988,-1.4855,-1.5139,-1.5176,-1.5286,-1.5284,-1.5335,-1.5347,-1.558,-1.5579,-1.5578,-1.5424,0,0,0,0,0,0,-1.4067,-1.4116,-1.4139,-1.4338,-1.4396,-1.4571,-1.4661,-1.47,-1.4778,-1.4793,-1.4988,-1.5022,-1.5143,-1.5267,-1.5299,-1.5303,-1.5356,-1.5581,-1.5579,-1.5578,-1.543,-1.5417,-1.5407,0,0,0,0,0,-1.405,-1.4084,-1.4139,-1.418,-1.4429,-1.4571,-1.4604,-1.4742,-1.4777,-1.4802,-1.4926,-1.5015,-1.5279,-1.5276,-1.5314,-1.5322,-1.5582,-1.558,-1.5578,-1.5435,-1.542,-1.5407,0,0,0,0,0,0,-1.3881,-1.4113,-1.4177,-1.4276,-1.4402,-1.4603,-1.4638,-1.4722,-1.4841,-1.485,-1.5017,-1.506,-1.5153,-1.5249,-1.5242,-1.5384,-1.544,-1.5446,-1.5319,-1.5306,-1.5294,-1.5269,-1.5367,0,0,0,0,0,-1.3855,-1.3951,-1.4148,-1.4217,-1.4277,-1.4445,-1.4513,-1.4608,-1.4746,-1.48,-1.4933,-1.5063,-1.5175,-1.5246,-1.536,-1.5444,-1.5488,-1.5468,-1.5456,-1.5446,-1.5448,-1.5497,-1.549,-1.5571,-1.5571,-1.5571,0,0,-1.3803,-1.3941,-1.3992,-1.4186,-1.4295,-1.439,-1.449,-1.4587,-1.4659,-1.4816,-1.4927,-1.5028,-1.5185,-1.5281,-1.5331,-1.5364,-1.5435,-1.5443,-1.5433,-1.5442,-1.5494,-1.5486,-1.5479,-1.5569,-1.557,-1.557,0,0,-1.3757,-1.3871,-1.394,-1.4046,-1.4209,-1.432,-1.4336,-1.4524,-1.4597,-1.4711,-1.483,-1.4917,-1.5108,-1.5213,-1.5291,-1.5279,-1.5365,-1.5312,-1.5252,-1.5297,-1.5291,-1.5286,-1.528,-1.5276,-1.5314,-1.5314,-1.5314,0,-1.3672,-1.382,-1.3965,-1.4054,-1.4135,-1.4279,-1.4349,-1.4445,-1.4636,-1.4688,-1.4723,-1.4962,-1.5078,-1.5199,-1.5195,-1.5255,-1.5277,-1.5291,-1.528,-1.5277,-1.5274,-1.527,-1.5268,-1.5306,-1.5307,-1.5308,-1.5309,0,-1.3706,-1.3806,-1.3842,-1.4021,-1.4106,-1.4185,-1.4341,-1.4409,-1.4496,-1.4603,-1.4716,-1.4859,-1.5003,-1.5039,-1.5126,-1.5172,-1.5187,-1.5248,-1.5308,-1.5256,-1.5255,-1.5255,-1.5295,-1.5298,-1.53,-1.5302,0,0,-1.3566,-1.3821,-1.3832,-1.3913,-1.4101,-1.4182,-1.4265,-1.4405,-1.4459,-1.4586,-1.4659,-1.4815,-1.4871,-1.496,-1.5059,-1.5099,-1.5077,-1.5155,-1.5161,-1.5134,-1.5135,-1.5086,-1.5083,-1.5134,-1.5135,-1.5135,-1.5121,0,-1.3546,-1.3704,-1.3835,-1.3944,-1.4037,-1.4173,-1.4246,-1.4368,-1.4469,-1.4563,-1.4676,-1.4782,-1.485,-1.4903,-1.4949,-1.507,-1.5079,-1.5073,-1.5204,-1.5207,-1.516,-1.5083,-1.5034,-1.5013,-1.5122,-1.5122,-1.5122,0,-1.3545,-1.3663,-1.3781,-1.3956,-1.4,-1.4063,-1.4199,-1.4287,-1.4428,-1.4499,-1.4594,-1.4697,-1.4791,-1.4839,-1.4969,-1.4962,-1.5023,-1.509,-1.5092,-1.511,-1.5161,-1.5097,-1.5011,-1.5006,-1.5123,-1.5123,-1.5123,0,-1.3428,-1.3617,-1.3711,-1.3777,-1.3984,-1.4025,-1.4113,-1.4255,-1.4329,-1.4448,-1.4497,-1.4626,-1.4696,-1.4793,-1.4926,-1.495,-1.5041,-1.5102,-1.5102,-1.5098,-1.5115,-1.5112,-1.5036,-1.5155,-1.5155,-1.5155,-1.5155,0,-1.3393,-1.3459,-1.3661,-1.3719,-1.3796,-1.3945,-1.4017,-1.4117,-1.424,-1.4319,-1.4445,-1.4516,-1.4688,-1.478,-1.4885,-1.4975,-1.5006,-1.5065,-1.5092,-1.5054,-1.5046,-1.5096,-1.51,-1.5155,-1.5155,-1.5155,-1.5155,0,-1.3276,-1.3415,-1.3526,-1.3711,-1.3759,-1.3807,-1.3966,-1.4026,-1.4133,-1.423,-1.4262,-1.443,-1.4543,-1.4686,-1.4846,-1.4916,-1.4994,-1.5036,-1.4946,-1.4962,-1.4952,-1.495,-1.4906,-1.4906,-1.5024,-1.5022,-1.5021,0,-1.3244,-1.3298,-1.3488,-1.3548,-1.3632,-1.3729,-1.3805,-1.3952,-1.4025,-1.4187,-1.4227,-1.4349,-1.4455,-1.463,-1.4766,-1.4888,-1.4933,-1.4908,-1.4952,-1.491,-1.493,-1.4925,-1.493,-1.4897,-1.4895,-1.4893,-1.4892,0,-1.3172,-1.3236,-1.334,-1.3466,-1.3552,-1.3659,-1.3771,-1.3814,-1.3984,-1.406,-1.4176,-1.4258,-1.4419,-1.4538,-1.4676,-1.4767,-1.4857,-1.4877,-1.4883,-1.4844,-1.4788,-1.4816,-1.4914,-1.4878,-1.4879,-1.488,-1.4881,-1.4881,-1.3096,-1.3149,-1.3289,-1.3399,-1.3498,-1.3599,-1.3664,-1.3777,-1.3877,-1.4018,-1.4099,-1.4212,-1.4348,-1.4543,-1.4629,-1.4719,-1.4753,-1.4762,-1.4765,-1.4764,-1.4751,-1.4773,-1.4745,-1.4746,-1.4747,-1.4747,-1.4748,0,-1.3029,-1.3125,-1.3224,-1.3376,-1.3461,-1.3537,-1.3664,-1.3731,-1.3828,-1.3947,-1.4047,-1.4179,-1.4294,-1.4437,-1.4562,-1.4606,-1.465,-1.4634,-1.4632,-1.4651,-1.4715,-1.4696,-1.4596,-1.4596,-1.4596,-1.4596,-1.4596,-1.4596,-1.3004,-1.3095,-1.3175,-1.3316,-1.3413,-1.3523,-1.3589,-1.3682,-1.3777,-1.3918,-1.4014,-1.4106,-1.4234,-1.4368,-1.4476,-1.4515,-1.4555,-1.4525,-1.4576,-1.4633,-1.4647,-1.4659,-1.4643,-1.4533,-1.4533,-1.4505,-1.4504,-1.4504]},{"header":{"parameterUnit":"m.s-1","parameterCategory":1,"la1":30.2991,"la2":30.254,"lo1":-89.0895,"lo2":-89.0444,"dy":0.0017,"dx":0.0017,"nx":28,"ny":28,"refTime":"2025-08-29T09:00:00:Z","depth":0,"parameterNumber":3,"parameterNumberName":"V-component_of_WINDS"},"data":[0,0,0,0,0,0,0,0,0,0,0,0,0,0,0,0,0,0,0,0,0,0,0,0,0,0,0,0,0,0,0,0,0,0,0,0,0,0,0,0,0,0,0,0,0,0,0,0,0,0,0,0,0,0,0,0,0,0,-2.2153,-2.2154,0,-2.2218,-2.2219,-2.2219,-2.2227,-2.2227,-2.2226,-2.2226,-2.2291,-2.2293,-2.2295,0,0,0,0,0,0,0,0,0,0,0,0,0,-2.2037,-2.2039,-2.2153,-2.2154,-2.2154,-2.2218,-2.2219,-2.2219,-2.2228,-2.2227,-2.2226,-2.2225,-2.229,-2.2293,-2.2296,0,0,0,0,0,0,0,0,0,0,0,0,0,-2.2093,-2.204,-2.2153,-2.2166,-2.2168,-2.2217,-2.2219,-2.222,-2.2228,-2.2227,-2.2226,-2.2225,-2.2289,-2.2293,-2.2296,-2.2336,0,0,-2.2307,-2.2308,0,0,0,0,0,0,0,0,-2.209,-2.2097,-2.2163,-2.2165,-2.2167,-2.2214,-2.2202,-2.2259,-2.2228,-2.2205,-2.2226,-2.2224,-2.2266,-2.2271,-2.2285,-2.2339,-2.2342,-2.2307,-2.2309,-2.231,-2.2311,0,0,0,0,0,0,0,-2.2086,-2.2094,-2.2178,-2.2164,-2.2167,-2.2169,-2.2176,-2.2212,-2.224,-2.2207,-2.2208,-2.2215,-2.2267,-2.2282,-2.2287,-2.2343,-2.2307,-2.231,-2.2312,-2.2313,-2.2437,-2.2438,0,0,0,0,0,0,-2.208,-2.2091,-2.2176,-2.218,-2.2126,-2.2172,-2.218,-2.22,-2.2239,-2.2245,-2.2216,-2.2215,-2.2276,-2.2283,-2.2289,-2.2341,-2.231,-2.2314,-2.2316,-2.2435,-2.2437,-2.2438,0,0,0,0,0,0,-2.2077,-2.2087,-2.2174,-2.2136,-2.2147,-2.2175,-2.2197,-2.2201,-2.2217,-2.2246,-2.2251,-2.2227,-2.2276,-2.2284,-2.2325,-2.2344,-2.2315,-2.2318,-2.2434,-2.2436,-2.2437,-2.2444,0,0,0,0,0,0,-2.2074,-2.2086,-2.2101,-2.2136,-2.2149,-2.2208,-2.2198,-2.2203,-2.2223,-2.2223,-2.2258,-2.2262,-2.2276,-2.232,-2.2329,-2.2348,-2.2321,-2.2432,-2.2435,-2.2437,-2.2443,-2.2446,-2.2449,0,0,0,0,0,-2.2069,-2.2099,-2.2102,-2.2112,-2.2169,-2.2209,-2.2217,-2.2232,-2.2224,-2.224,-2.226,-2.2261,-2.234,-2.2324,-2.2334,-2.2354,-2.2431,-2.2434,-2.2437,-2.2441,-2.2445,-2.2449,0,0,0,0,0,0,-2.2064,-2.2104,-2.2107,-2.215,-2.2176,-2.2211,-2.2231,-2.2236,-2.2265,-2.2263,-2.2281,-2.2289,-2.2329,-2.2346,-2.2327,-2.2397,-2.2385,-2.239,-2.2385,-2.2389,-2.2393,-2.2388,-2.2324,0,0,0,0,0,-2.2069,-2.2098,-2.2131,-2.2165,-2.2179,-2.2203,-2.2221,-2.2231,-2.2259,-2.227,-2.2292,-2.2319,-2.2351,-2.2371,-2.2401,-2.2445,-2.2454,-2.2464,-2.2467,-2.247,-2.2474,-2.2501,-2.2507,-2.2447,-2.2447,-2.2447,0,0,-2.2077,-2.2102,-2.2119,-2.2165,-2.2187,-2.2218,-2.2212,-2.2244,-2.2268,-2.2275,-2.2316,-2.2333,-2.2365,-2.2408,-2.2428,-2.2423,-2.2493,-2.2473,-2.2475,-2.2478,-2.2505,-2.251,-2.2515,-2.2449,-2.2448,-2.2448,0,0,-2.2108,-2.2129,-2.2162,-2.2184,-2.2218,-2.2234,-2.2242,-2.2277,-2.2289,-2.2331,-2.2337,-2.2366,-2.2418,-2.2441,-2.246,-2.2503,-2.2507,-2.2513,-2.253,-2.2556,-2.2561,-2.2566,-2.2583,-2.2589,-2.2516,-2.2516,-2.2516,0,-2.2114,-2.2161,-2.2177,-2.2211,-2.2232,-2.2241,-2.2275,-2.2295,-2.2337,-2.2351,-2.2345,-2.2414,-2.2435,-2.2486,-2.2497,-2.251,-2.2521,-2.2509,-2.2559,-2.2564,-2.2568,-2.2585,-2.2591,-2.2517,-2.2517,-2.2517,-2.2517,0,-2.2168,-2.2201,-2.2223,-2.2265,-2.2288,-2.2321,-2.2344,-2.2365,-2.2374,-2.2391,-2.2434,-2.2461,-2.2498,-2.251,-2.2518,-2.2563,-2.2559,-2.2556,-2.2544,-2.2574,-2.2591,-2.2597,-2.2518,-2.2518,-2.2518,-2.2517,0,0,-2.2197,-2.2249,-2.2257,-2.2278,-2.2317,-2.2343,-2.2377,-2.2415,-2.2434,-2.2463,-2.2493,-2.2539,-2.2537,-2.2559,-2.2569,-2.2592,-2.2628,-2.2586,-2.2588,-2.2595,-2.2682,-2.2686,-2.2693,-2.263,-2.2632,-2.2633,-2.268,0,-2.2234,-2.2297,-2.2314,-2.2367,-2.2399,-2.2409,-2.244,-2.2467,-2.2485,-2.2515,-2.2534,-2.2567,-2.2561,-2.2574,-2.2598,-2.2619,-2.2646,-2.2615,-2.266,-2.2661,-2.2653,-2.2701,-2.2704,-2.2748,-2.2686,-2.2687,-2.2688,0,-2.2286,-2.2318,-2.2375,-2.2413,-2.2427,-2.2454,-2.2491,-2.2519,-2.2552,-2.2563,-2.2588,-2.2597,-2.2635,-2.2621,-2.2674,-2.2653,-2.2672,-2.2686,-2.2688,-2.2694,-2.2677,-2.271,-2.2761,-2.2769,-2.2698,-2.2697,-2.2697,0,-2.2304,-2.2361,-2.2403,-2.242,-2.2465,-2.2484,-2.2504,-2.2535,-2.2558,-2.259,-2.2605,-2.2641,-2.2661,-2.2689,-2.2708,-2.2696,-2.276,-2.2747,-2.2772,-2.2772,-2.2786,-2.2785,-2.2843,-2.2795,-2.2795,-2.2795,-2.2795,0,-2.2345,-2.238,-2.2413,-2.2439,-2.2479,-2.2499,-2.2538,-2.2558,-2.2586,-2.2617,-2.2627,-2.2656,-2.2679,-2.2711,-2.2726,-2.2769,-2.2777,-2.2788,-2.2792,-2.2788,-2.2787,-2.2802,-2.28,-2.2797,-2.2796,-2.2796,-2.2796,0,-2.2372,-2.2395,-2.2442,-2.2482,-2.2493,-2.2521,-2.2555,-2.2581,-2.26,-2.2639,-2.2649,-2.2678,-2.2717,-2.2739,-2.2786,-2.2797,-2.2846,-2.2847,-2.2835,-2.2837,-2.2861,-2.286,-2.2932,-2.2944,-2.2887,-2.2887,-2.2888,0,-2.2397,-2.2425,-2.2468,-2.249,-2.251,-2.2545,-2.2569,-2.259,-2.2614,-2.2655,-2.2677,-2.2716,-2.2749,-2.2811,-2.2836,-2.2874,-2.2877,-2.29,-2.2883,-2.2879,-2.288,-2.2879,-2.2883,-2.2903,-2.2904,-2.2904,-2.2905,0,-2.244,-2.2451,-2.2485,-2.2524,-2.2553,-2.2584,-2.2615,-2.2632,-2.2659,-2.2686,-2.2726,-2.2752,-2.2802,-2.2842,-2.2882,-2.2903,-2.2909,-2.291,-2.2918,-2.2915,-2.2908,-2.2915,-2.2845,-2.2908,-2.2908,-2.2908,-2.2908,-2.2907,-2.2469,-2.2495,-2.253,-2.2569,-2.2595,-2.2624,-2.2652,-2.2675,-2.271,-2.2753,-2.2764,-2.2807,-2.2841,-2.2896,-2.2917,-2.2952,-2.2948,-2.2959,-2.2962,-2.2965,-2.2967,-2.2902,-2.2959,-2.2959,-2.2959,-2.2959,-2.2958,0,-2.2514,-2.2538,-2.2573,-2.2618,-2.2649,-2.2653,-2.2688,-2.2713,-2.2752,-2.2783,-2.2816,-2.2864,-2.2904,-2.2933,-2.2974,-2.2996,-2.3,-2.3006,-2.3005,-2.301,-2.2967,-2.2957,-2.3002,-2.3002,-2.3002,-2.3002,-2.3002,-2.3002,-2.2541,-2.2587,-2.2603,-2.2662,-2.2685,-2.2729,-2.2749,-2.2777,-2.2803,-2.2856,-2.289,-2.2909,-2.2941,-2.2984,-2.3021,-2.3029,-2.3044,-2.305,-2.3058,-2.3017,-2.3013,-2.3008,-2.2999,-2.3053,-2.3053,-2.3099,-2.3099,-2.31]}]]